Theta_e
315 315 316 317 316 316 315 313 310 307 307 303 300 300 301 302 301 301 302 306 308 308 303 303 304 305 306 304 303 301 305 305 306 305 307 302 305 302 301 301 301 302 305 304 306
315 315 315 314 315 315 314 310 307 306 305 304 300 300 301 302 302 300 301 306 306 304 303 302 302 303 302 304 302 303 303 305 302 301 303 302 303 302 303 302 302 303 303 302 306
315 314 313 311 312 313 312 308 307 306 305 305 300 300 302 304 301 300 301 302 303 303 303 303 302 302 303 303 303 303 302 302 302 304 301 302 302 300 302 304 301 301 303 300 302
315 315 312 309 312 310 307 307 306 305 305 304 300 300 302 304 306 300 302 303 304 303 303 302 301 302 302 303 302 304 302 302 302 301 301 302 300 301 300 302 299 299 302 301 300
315 315 312 309 308 307 307 306 306 305 306 303 300 299 303 299 299 300 302 303 304 303 303 302 302 302 302 302 302 303 302 301 301 301 301 301 300 300 298 298 298 301 302 301 300
315 315 312 309 308 307 306 306 306 305 304 302 300 302 302 302 300 300 302 303 303 303 302 302 302 301 301 302 301 302 301 301 302 302 302 302 301 300 299 299 297 301 302 301 300
315 315 312 310 306 305 305 306 305 303 303 301 300 300 298 299 299 301 302 302 303 303 302 303 303 302 300 302 302 301 302 303 302 302 301 300 301 299 298 298 299 297 301 301 300
316 316 313 310 305 305 305 306 305 303 300 300 302 299 297 299 299 301 301 302 303 303 302 303 303 300 301 301 304 302 303 303 303 300 302 300 304 302 299 299 299 298 296 300 301
316 316 313 309 304 305 305 306 305 302 302 302 302 299 299 299 299 301 301 302 302 304 303 303 302 300 302 304 304 301 301 305 304 300 300 300 302 302 299 299 298 297 296 296 298
316 314 311 306 304 306 306 305 302 303 301 302 299 303 298 297 299 301 302 302 301 302 302 303 300 300 296 300 303 304 301 302 303 300 299 301 302 302 300 299 298 297 297 296 297
316 314 306 304 304 306 307 309 304 304 297 295 295 297 296 299 300 301 301 302 302 300 301 303 300 299 300 300 301 301 302 303 302 299 299 300 298 300 300 297 297 296 295 296 296
316 312 304 304 305 305 304 300 299 298 298 296 296 296 297 298 301 300 301 300 298 300 303 301 300 301 301 301 302 302 301 300 300 299 298 296 297 298 296 296 296 297 295 294 294
314 309 304 305 307 305 303 301 301 302 299 301 296 296 296 300 301 300 300 299 298 299 298 302 301 301 302 300 302 300 301 300 300 298 296 293 297 297 296 297 298 298 295 294 294
311 304 305 305 306 304 302 302 301 302 298 302 300 298 300 300 301 300 300 301 299 298 300 300 300 301 301 300 298 302 298 299 299 294 295 293 298 297 296 296 297 297 295 295 296
305 304 305 305 305 303 302 302 302 302 302 301 300 298 301 302 301 301 300 299 300 300 297 300 300 300 300 299 298 300 297 297 294 288 290 292 290 296 296 299 298 296 296 296 296
305 304 305 305 304 303 303 302 302 303 301 300 300 301 301 299 301 299 301 298 298 301 299 299 297 297 299 297 297 296 295 293 290 285 292 286 290 299 300 300 296 296 295 295 295
304 304 304 304 302 304 304 301 304 302 297 299 302 302 299 300 302 301 301 298 299 296 293 296 299 297 296 299 298 294 289 291 295 293 298 279 291 299 299 297 296 294 293 293 293
305 304 304 304 304 305 302 301 301 293 293 300 302 302 302 300 299 300 302 299 297 296 291 291 293 292 296 297 297 296 289 293 292 294 294 280 292 299 296 294 292 292 291 293 293
305 303 303 303 305 305 298 297 299 297 300 302 299 295 294 300 297 295 301 298 299 296 295 292 294 295 296 295 293 293 289 290 284 275 286 289 292 295 297 292 293 293 292 292 292
307 303 302 303 302 298 295 297 296 299 302 301 297 295 291 290 298 292 295 299 299 296 291 294 291 289 295 294 292 291 290 291 286 291 290 290 282 296 294 293 292 292 290 289 289
306 300 301 303 297 293 294 291 292 297 300 301 300 299 298 294 297 293 295 300 298 296 293 289 288 290 294 288 289 290 288 287 288 290 291 289 295 288 288 285 287 288 287 283 284
299 296 299 297 295 283 288 289 298 301 300 301 300 297 296 296 297 291 298 297 296 294 298 295 293 290 292 293 292 292 289 292 293 289 286 290 294 288 285 281 277 286 286 285 281
293 293 297 295 291 289 296 297 298 300 299 300 300 300 297 291 291 299 301 298 295 297 296 296 287 284 290 289 291 291 292 290 287 291 289 292 295 286 280 281 282 283 289 293 294
291 291 291 290 287 292 292 292 296 297 300 298 299 299 299 291 293 292 300 299 297 297 299 297 295 287 289 287 286 291 293 293 290 286 293 295 297 295 295 292 290 294 290 292 291
290 292 289 290 292 293 294 293 295 296 298 298 295 297 295 292 295 290 298 298 297 299 298 295 289 293 291 287 285 291 290 290 292 291 295 297 294 291 295 295 294 291 289 291 291
294 292 289 294 294 295 293 296 293 294 297 297 293 297 295 290 294 294 297 298 297 296 297 294 287 287 289 295 296 297 296 293 293 295 294 295 295 293 289 284 287 290 290 290 289
294 293 292 295 294 291 292 296 296 296 297 297 296 297 298 297 295 295 294 295 295 295 295 293 287 287 286 286 286 287 289 294 292 284 291 290 289 282 284 286 286 290 289 286 285
Wind_Speed
15 16 16 16 16 15 14 15 15 14 12 9 8 6 3 2 8 4 7 10 10 13 8 3 4 3 3 3 3 3 4 2 3 5 1 4 1 2 1 4 1 1 3 3 24
16 18 17 16 16 16 15 15 16 15 12 7 7 5 3 1 3 11 10 12 10 9 5 6 3 3 3 2 3 4 4 7 0 1 0 3 1 2 0 1 2 1 3 12 29
15 17 18 19 18 18 16 17 17 15 11 5 5 4 1 1 2 3 14 12 7 6 2 2 2 2 3 2 2 2 4 2 1 1 0 2 1 4 1 4 5 6 5 11 17
15 16 18 19 18 18 19 18 18 14 8 3 3 3 2 0 1 6 13 12 6 3 1 2 2 3 3 2 2 1 1 1 1 2 1 1 4 4 4 3 1 4 6 13 13
14 17 17 17 17 19 18 18 17 9 3 2 2 2 1 4 1 9 10 10 4 1 5 2 3 2 4 4 2 2 1 2 1 2 1 4 4 4 7 7 3 3 8 12 11
15 17 17 17 18 20 18 17 12 6 2 2 2 1 1 2 3 11 11 8 10 5 5 6 2 2 5 3 2 1 2 1 3 3 3 3 2 4 2 2 4 6 8 9 10
15 16 17 18 19 20 19 14 8 4 2 2 2 2 6 1 4 11 9 7 9 6 3 4 2 3 2 3 0 3 1 0 2 2 2 2 4 7 6 3 3 7 7 7 11
14 16 17 18 19 18 18 8 5 3 3 3 3 2 2 3 4 13 10 4 6 6 6 5 6 6 4 2 5 4 4 2 2 6 2 2 7 2 1 2 7 6 7 7 10
15 16 17 17 18 16 13 3 3 4 4 2 2 2 1 3 4 12 9 5 4 4 5 4 5 4 5 3 4 7 1 1 2 5 4 3 6 3 2 2 7 7 7 7 8
14 16 17 16 16 15 7 2 8 1 3 3 4 3 6 4 6 10 7 6 4 2 4 7 5 4 4 5 2 2 2 2 3 6 5 4 13 13 7 8 10 9 8 8 8
14 15 15 15 15 13 3 1 4 4 12 4 2 0 2 8 3 9 8 3 4 8 4 4 6 2 1 1 2 2 1 2 2 4 4 3 9 19 7 7 9 8 8 9 10
14 14 14 13 12 10 3 6 2 2 5 3 1 1 1 4 3 11 8 4 6 3 5 6 3 3 1 4 3 5 2 3 4 4 3 6 17 18 7 5 5 5 7 8 5
12 12 12 11 4 4 10 6 4 2 4 2 1 2 3 4 2 8 6 3 5 5 4 5 1 4 3 5 5 3 3 3 3 7 3 8 8 6 3 4 3 2 4 5 6
9 9 9 5 1 3 4 2 2 1 4 4 4 4 3 1 5 4 5 3 6 3 3 5 4 3 4 4 3 2 3 2 3 5 2 5 4 8 5 9 5 6 4 5 1
6 5 4 2 4 3 1 2 3 1 3 2 4 3 4 5 3 7 5 5 4 2 5 3 4 6 6 2 2 1 3 2 3 4 3 7 4 8 4 6 5 6 5 4 2
2 2 2 1 4 3 2 4 1 6 5 3 3 5 4 7 5 6 4 8 3 4 6 2 1 4 1 2 3 2 2 5 3 3 3 3 3 6 3 3 5 4 5 5 4
3 6 3 3 2 2 4 2 5 4 3 4 3 4 3 5 5 7 4 6 3 5 5 5 3 3 4 1 2 6 6 4 6 4 4 1 1 10 6 6 4 7 8 7 5
3 5 12 9 3 4 2 5 3 2 5 1 3 3 4 6 3 6 3 2 5 5 3 4 6 4 6 3 2 4 5 5 4 2 5 2 5 5 4 6 6 5 6 6 6
6 6 4 7 3 2 4 3 6 5 3 6 3 5 4 3 1 4 4 2 1 2 5 3 4 1 4 3 3 2 3 2 7 2 3 3 7 11 3 6 8 6 7 7 7
3 3 4 5 2 2 4 4 2 2 1 2 4 2 3 3 2 4 2 2 3 2 1 3 3 1 3 2 5 4 2 4 3 2 4 5 5 5 7 8 10 10 9 9 8
1 3 4 2 1 5 3 5 3 4 2 2 4 4 2 2 1 0 2 2 1 2 5 4 4 5 1 2 6 2 2 4 3 3 4 2 6 7 7 3 6 9 8 6 8
2 2 5 2 4 1 3 4 1 1 1 2 3 3 5 5 2 0 3 4 1 4 3 0 4 2 7 1 2 3 6 4 4 5 2 2 8 2 6 5 4 9 7 6 5
2 1 4 1 3 1 1 2 0 1 0 1 2 1 2 4 2 3 2 2 3 2 5 5 2 3 8 4 4 3 4 3 3 2 6 3 6 2 3 4 5 6 11 13 16
3 2 4 4 1 6 5 1 1 2 1 3 3 3 3 3 3 3 3 1 2 1 3 3 4 7 7 7 4 2 4 5 5 3 3 14 25 10 17 13 12 16 8 11 14
3 1 2 1 3 3 2 5 4 1 2 1 4 3 5 2 1 2 2 2 1 2 3 3 5 6 7 6 4 8 8 7 11 8 10 30 18 9 17 17 16 11 11 15 14
3 3 2 2 0 2 2 4 5 2 4 2 4 4 4 5 5 6 4 3 5 1 4 0 3 2 5 9 14 19 14 17 20 18 17 25 29 16 8 5 9 15 16 13 11
2 3 4 1 1 3 2 3 4 5 1 1 4 4 2 3 4 2 4 3 4 5 5 4 3 3 6 3 5 7 13 18 7 4 9 8 7 3 6 10 8 16 15 9 8
Wind_Direction
8 4 359 353 350 349 351 352 351 349 345 343 342 341 353 69 42 57 38 344 324 330 339 358 93 83 77 79 54 123 66 198 231 163 235 1 122 13 306 126 104 118 158 293 162
0 357 354 353 350 345 344 349 345 341 340 329 341 341 348 195 47 56 3 340 338 344 3 51 59 44 44 51 20 91 124 221 20 122 210 315 335 323 72 157 242 195 65 144 160
356 355 356 350 347 344 345 342 338 335 331 317 340 345 15 143 92 344 352 353 346 338 352 36 57 69 76 40 24 148 182 170 152 35 9 291 267 323 211 239 218 209 159 156 163
349 353 350 348 346 344 339 337 333 332 328 300 336 348 13 135 244 350 352 355 0 8 35 57 51 70 99 135 9 113 42 15 127 7 354 277 302 291 215 223 55 233 167 170 175
342 346 348 350 349 343 340 337 336 341 346 320 347 349 266 48 11 347 354 7 17 55 59 50 73 111 131 114 78 92 135 47 35 30 22 335 292 275 263 259 256 87 156 184 191
336 339 343 345 345 343 340 337 340 357 24 355 6 57 267 98 5 0 1 27 34 55 48 42 86 112 102 83 96 100 79 48 14 357 9 349 298 16 283 7 216 169 198 197 197
330 335 338 340 341 341 339 335 338 358 22 26 63 67 58 160 355 5 9 29 29 48 84 58 69 76 123 94 135 115 62 36 31 1 341 2 263 234 254 312 217 222 220 218 221
324 330 334 336 338 340 339 336 351 358 50 73 72 57 96 357 1 6 20 46 39 55 80 65 77 99 49 156 34 42 46 30 15 359 2 356 275 261 12 202 255 248 240 226 228
321 326 328 332 337 341 344 14 10 68 46 47 48 81 84 343 23 2 9 5 14 52 57 73 67 78 27 63 23 17 198 340 329 36 323 44 279 276 69 16 288 275 263 244 248
315 321 325 330 335 341 344 101 60 26 9 47 48 46 22 317 321 342 359 14 37 355 26 41 47 72 33 57 220 286 12 310 277 343 354 291 270 279 266 273 263 267 266 252 243
307 314 321 328 336 345 1 292 13 354 39 85 305 36 327 326 358 6 355 8 17 50 44 9 65 72 25 40 124 120 72 307 296 12 337 296 288 287 294 254 267 271 270 264 250
300 308 320 327 332 352 25 76 106 153 79 23 31 11 338 342 5 349 7 68 58 62 343 24 73 332 345 26 74 59 75 317 298 17 357 357 296 283 292 252 224 274 291 280 263
290 307 322 326 338 18 69 93 114 131 91 7 26 13 315 6 67 338 22 69 82 56 19 108 50 358 65 32 37 49 95 10 261 327 70 324 299 323 313 315 269 262 302 305 257
286 308 321 331 6 47 57 67 142 118 72 302 343 1 332 315 39 341 21 106 40 145 73 75 341 56 61 68 40 32 357 34 13 39 278 13 277 299 318 307 285 286 324 331 330
279 309 334 9 122 72 62 92 133 63 26 312 327 322 1 68 303 0 9 29 73 51 81 269 18 31 54 7 26 151 31 58 83 91 51 350 68 272 336 322 314 302 289 319 356
308 336 178 77 70 84 97 126 92 47 257 345 312 348 32 14 17 316 27 46 140 88 44 91 42 53 63 55 50 69 72 42 59 94 30 255 106 282 259 239 320 338 287 278 272
95 65 110 83 86 91 125 51 46 131 340 295 357 21 91 358 16 21 31 20 76 61 3 358 19 357 26 35 19 53 48 342 359 9 224 259 22 248 288 284 275 290 308 266 246
105 108 76 76 77 126 104 55 98 227 221 62 34 59 72 359 23 348 63 67 39 78 91 100 333 11 346 63 179 42 128 144 218 286 279 2 241 254 242 297 281 283 301 282 258
141 94 69 18 44 131 75 74 208 192 151 142 84 70 328 349 148 51 20 156 75 96 127 102 299 340 42 24 69 269 41 169 99 68 32 273 293 295 329 321 15 318 317 290 268
155 94 51 7 53 92 75 231 135 254 251 112 133 131 175 280 7 50 355 289 105 31 143 186 8 277 288 135 34 121 149 36 8 9 306 291 280 239 320 321 343 359 339 325 324
135 63 4 30 84 48 146 211 232 253 275 91 144 135 153 179 127 293 222 303 118 113 80 131 91 283 31 185 181 33 13 42 123 135 187 274 266 216 224 236 308 318 329 320 318
79 53 1 126 48 19 105 177 222 353 57 78 97 112 166 157 113 315 229 219 217 150 98 72 131 227 226 125 171 164 190 154 129 269 227 179 270 299 222 234 215 295 287 275 254
98 217 3 62 125 31 104 117 198 290 97 113 92 55 155 141 53 218 239 347 166 139 165 173 334 1 340 9 355 217 204 140 115 91 204 168 256 257 233 253 272 280 319 328 322
87 34 338 46 72 127 144 211 4 315 41 77 105 83 112 46 35 203 226 239 223 176 150 148 163 173 202 207 141 188 198 205 145 143 245 236 276 292 291 305 319 317 321 317 298
28 176 195 315 346 107 120 143 153 160 347 75 17 166 154 124 55 236 275 307 315 268 155 128 205 207 244 227 191 235 215 210 208 214 221 269 259 296 294 306 318 321 316 312 319
115 130 20 91 9 106 20 221 161 227 139 237 149 182 157 156 182 197 166 195 222 322 174 135 265 86 281 245 246 262 254 231 238 245 253 262 277 284 314 341 343 330 322 330 328
96 104 104 354 95 87 223 172 208 142 306 53 159 122 179 233 202 233 220 242 226 177 194 164 133 41 269 325 327 301 233 230 219 191 214 240 250 332 337 336 323 316 312 290 287